Hourly Weather Roundup
Issued by NWS Central Illinois

Home | Current Version | Previous Version | Text Only | Print | Product List | Glossary On
Versions: 1 2 3 4 5 6 7 8 9 10 11 12 13 14 15 16 17 18 19 20 21 22 23 24 25 26 27 28 29 30 31 32 33 34 35 36 37 38 39 40 41 42 43 44 45 46 47 48 49 50
000
NZUS43 KILX 011910
HWRILX

AREA WEATHER ROUNDUP
NATIONAL WEATHER SERVICE, LINCOLN IL
100 PM CST SUN MAR 01 2015


CITY           SKY/WX    TMP DP  RH WIND       PRES   REMARKS
BLOOMINGTON    PTSUNNY   26  21  81 NW5       30.34F WCI  20
CHAMPAIGN      CLOUDY    26  22  84 NW8       30.33F FOG     WCI  18
DECATUR        CLOUDY    27  22  81 N8        30.34S WCI  19
FLORA          DRIZZLE   31  30  96 NW6       30.34F WCI  25
GALESBURG      CLOUDY    24  19  78 W6        30.36F WCI  17
JACKSONVILLE   CLOUDY    29  22  77 NW7       30.37F WCI  21
LACON          MOSUNNY   24  17  74 NW6       30.36F WCI  17
LAWRENCEVILLE  CLOUDY    33  31  92 CALM      30.34F FOG
LITCHFIELD     CLOUDY    28  23  83 NW8       30.35S HAZE    WCI  20
$$


CITY           SKY/WX    TMP DP  RH WIND       PRES   REMARKS
LINCOLN        CLOUDY    29  23  76 NW6       30.37F WCI  23
MACOMB         MOSUNNY   25  19  79 NW7       30.41S WCI  17
MATTOON        LGT SNOW  28  24  85 NW10      30.32S FOG     WCI  19
MT CARMEL AP   FOG       34  32  93 CALM      30.34F VSB 3/4
OLNEY-NOBLE AP LGT RAIN  32  30  93 CALM      30.33F
PARIS          SNOW      28  26  91 N3        30.33S VSB 1/2
PEORIA         CLOUDY    28  19  69 VRB5      30.36F WCI  23
PONTIAC        FLURRIES  24  20  85 NW5       30.35F WCI  19
RANTOUL        CLOUDY    27  23  85 NW8       30.33F WCI  18
ROBINSON       CLOUDY    32  31  97 CALM      30.34F FOG
SPRINGFIELD    CLOUDY    28  21  75 N8        30.36F WCI  20
TAYLORVILLE    CLOUDY    28  23  80 N6        30.35F WCI  22
$$

...REGIONAL REPORTS...


CITY           SKY/WX    TMP DP  RH WIND       PRES   REMARKS
CHICAGO O`HARE CLOUDY    23  16  74 W7        30.31F WCI  15
KANKAKEE       CLOUDY    24  20  85 W7        30.34F WCI  16
MOLINE         CLOUDY    26  15  63 W5        30.35F WCI  20
MOUNT VERNON   CLOUDY    32  27  80 CALM      30.35F
PITTSFIELD     CLOUDY    29  22  76 NW3       30.38S
QUINCY         MOSUNNY   27  20  75 NW5       30.38F WCI  22
ROCKFORD       PTSUNNY   25  14  63 NW8       30.32F WCI  16
$$


CITY           SKY/WX    TMP DP  RH WIND       PRES   REMARKS
BURLINGTON     CLOUDY    26  17  68 N5        30.36F WCI  20
CEDAR RAPIDS   SUNNY     25  18  74 W9        30.32F WCI  15
DES MOINES     MOSUNNY   31  18  58 W9        30.35F WCI  23
KIRKSVILLE     CLOUDY    28  19  69 CALM      30.37F
OTTUMWA        PTSUNNY   27  18  69 W7        30.36F WCI  19
ST LOUIS       CLOUDY    31  24  75 NW8       30.37S WCI  23
$$


CITY           SKY/WX    TMP DP  RH WIND       PRES   REMARKS
TERRE HAUTE    LGT SNOW  30  27  88 CALM      30.32F FOG
EVANSVILLE     CLOUDY    36  29  75 W6        30.34F WCI  31
INDIANAPOLIS   LGT SNOW  30  26  85 CALM      30.28F FOG
LAFAYETTE      LGT SNOW  25  21  85 N5        30.32F FOG     WCI  19
MADISON        CLOUDY    24  13  62 SW12G17   30.26F WCI  13
MILWAUKEE      MOSUNNY   25  13  60 SW13      30.28F WCI  14
$$





USA.gov is the U.S. government's official web portal to all federal, state and local government web resources and services.